RH
7 7 5 4 2 2 20 42 70 85 88 47 30 26 23 25 25 22 20 20 18 15 14 14 16 19 22 20 25 31 68 53 34 31 25 24 34 34 38 36 34 35 41 40 42
8 7 6 5 3 2 4 23 32 76 93 83 46 30 26 26 26 23 24 22 21 17 15 13 14 18 24 22 26 39 57 49 36 32 27 39 35 36 38 39 37 39 42 42 41
10 9 6 5 4 3 2 4 23 70 87 95 74 41 31 29 28 23 31 29 28 25 18 18 21 25 27 29 28 41 47 34 28 35 48 52 44 43 44 42 38 37 43 45 45
10 9 9 9 6 3 2 1 9 90 84 93 99 62 34 32 36 30 38 38 41 34 31 26 29 25 33 33 31 37 49 49 36 30 55 53 45 40 46 47 43 39 44 47 49
27 38 54 34 19 8 4 2 10 79 92 87 98 89 38 34 31 43 66 53 65 60 62 49 34 36 63 29 40 62 49 62 55 41 57 58 48 41 44 48 42 42 39 50 56
98 97 87 83 36 15 5 3 4 70 80 90 98 97 50 34 40 43 64 66 82 86 96 82 52 33 45 47 73 80 84 75 72 58 58 59 56 48 35 48 49 38 42 46 57
97 96 92 80 67 60 28 9 4 7 45 91 99 98 75 37 44 40 47 67 66 77 94 91 88 58 62 76 83 85 76 76 56 46 46 39 42 45 27 25 40 48 41 39 47
92 91 94 82 74 75 78 91 71 5 29 87 99 100 90 45 44 35 52 70 65 64 90 98 98 85 76 89 79 83 82 75 39 44 38 41 36 26 23 28 25 18 20 18 22
94 89 90 82 77 83 93 73 81 31 73 89 99 98 91 54 36 45 68 70 70 71 84 99 99 97 92 86 78 77 77 64 64 57 62 62 56 47 42 43 40 39 36 23 14
87 84 79 84 80 78 76 90 74 49 99 98 99 100 92 61 37 53 79 82 77 86 82 95 97 99 100 99 91 73 78 78 77 65 70 70 69 62 51 60 40 38 31 26 27
81 77 85 74 84 93 81 70 61 32 98 98 96 100 81 57 42 54 85 78 84 99 94 99 98 98 95 73 77 74 88 82 67 66 69 65 65 64 43 37 37 32 33 23 21
72 73 73 76 93 95 97 95 72 73 94 98 98 98 78 56 41 68 84 85 78 86 96 98 97 87 94 94 90 85 97 87 68 62 63 59 52 45 32 15 13 10 11 11 12
60 56 58 74 78 84 97 90 74 88 97 98 98 98 85 58 53 60 82 84 82 92 87 80 94 97 99 100 98 89 86 78 69 51 44 50 26 12 14 13 17 16 15 15 14
50 53 80 76 68 73 92 76 59 95 96 98 98 99 92 76 73 80 94 87 97 99 99 93 87 84 94 89 88 86 80 80 82 76 69 61 80 12 15 19 14 14 17 14 14
50 54 53 73 49 64 89 67 80 89 96 98 98 99 96 72 73 98 100 100 96 95 96 92 91 86 88 71 90 90 86 81 78 78 79 61 60 20 20 12 14 21 28 17 18
52 56 54 44 46 68 94 82 54 82 94 98 99 96 99 89 86 97 100 98 99 98 97 94 86 88 92 83 90 92 87 76 71 81 90 39 54 32 19 20 26 24 20 21 25
87 98 86 51 76 76 95 41 44 94 97 99 99 87 87 98 97 100 99 97 93 98 99 100 93 86 82 80 86 94 86 87 91 92 88 48 67 31 26 24 26 21 25 30 32
92 94 84 76 77 78 58 41 66 96 98 99 98 93 95 95 97 100 99 99 87 85 94 85 75 83 72 82 74 85 83 74 87 98 82 61 62 33 29 24 26 34 34 35 36
88 93 93 99 85 80 99 82 90 98 98 98 99 93 100 89 89 100 100 98 83 80 74 81 84 89 87 92 93 93 90 88 90 77 83 52 35 27 25 32 36 35 35 36 38
84 93 98 92 87 87 92 91 94 98 96 89 94 89 96 92 89 94 92 93 88 77 84 84 85 96 92 95 95 90 79 95 94 98 92 64 48 35 34 37 39 40 40 39 39
85 82 94 83 93 95 96 98 98 98 95 97 93 97 82 88 86 86 84 90 76 75 91 86 84 86 96 92 78 93 97 92 88 86 96 98 56 39 41 44 48 47 48 54 60
61 65 76 90 94 97 98 98 97 94 84 87 72 74 79 82 94 84 75 87 95 85 95 94 86 90 81 72 79 77 70 88 82 64 85 86 71 52 47 45 52 53 60 54 65
32 48 62 82 96 97 98 93 97 96 88 85 84 82 73 84 76 79 84 90 96 98 86 90 93 90 88 82 91 92 88 90 89 88 87 90 68 55 53 62 77 94 96 88 97
34 54 64 80 89 93 96 92 97 96 91 85 85 80 84 83 86 97 90 89 98 98 95 88 88 70 79 93 86 87 83 83 88 98 87 84 77 65 86 99 99 99 98 95 97
54 61 63 79 90 91 86 94 95 95 90 92 89 86 89 87 86 91 95 87 94 98 99 97 93 87 67 65 72 69 63 70 84 80 99 70 91 80 98 99 99 99 99 88 99
49 66 65 82 100 92 86 92 88 79 76 93 92 96 91 87 83 90 88 77 65 78 100 98 91 87 72 85 83 86 79 84 95 92 99 99 98 100 100 99 99 100 100 98 96
51 60 72 73 94 94 87 85 83 77 81 82 89 94 92 96 98 94 95 86 84 82 75 90 97 93 74 73 80 84 87 92 94 90 100 100 98 100 99 100 99 100 100 100 99
Wind_Speed
25 25 25 24 24 22 26 27 26 21 25 26 25 24 24 25 25 27 26 21 26 24 23 25 24 24 26 28 30 26 31 33 35 31 30 20 20 10 20 23 22 24 20 17 18
30 28 27 27 25 25 25 30 30 25 23 25 23 23 23 25 26 27 19 25 24 23 23 23 20 21 28 27 30 34 37 37 32 30 24 18 22 21 19 23 22 22 22 20 21
35 35 31 30 30 28 28 30 31 32 24 24 22 22 22 24 26 20 22 22 21 20 21 20 20 21 27 27 31 34 38 35 29 19 21 28 25 23 17 21 26 27 23 22 23
41 41 40 34 33 32 31 31 30 32 29 22 22 23 22 23 16 20 21 20 17 19 20 20 22 24 24 30 29 31 32 26 26 22 26 28 31 31 25 24 25 27 29 25 22
44 43 38 36 30 34 35 32 34 35 32 24 24 24 25 25 24 14 13 17 15 18 16 16 23 23 24 25 25 28 25 21 19 27 31 30 36 37 35 29 36 34 36 27 21
33 32 32 29 26 29 33 35 35 39 37 27 26 25 26 27 20 24 15 13 21 22 18 16 18 22 16 13 23 16 16 19 26 26 31 34 38 38 43 32 34 32 37 36 29
35 36 31 29 27 30 31 31 33 40 39 29 32 23 27 21 24 23 23 18 15 24 22 17 16 22 20 15 18 18 22 21 28 29 32 36 43 45 36 31 40 43 44 42 42
34 32 26 24 26 21 15 17 22 34 38 34 25 33 32 24 26 21 20 19 19 23 24 20 19 19 21 17 19 21 20 26 20 19 22 27 44 32 23 23 30 35 37 40 42
30 28 25 22 21 18 18 19 18 30 32 32 32 29 28 26 26 20 16 18 17 18 26 27 26 25 22 22 17 15 16 14 10 10 14 21 29 23 18 26 30 30 29 30 37
28 25 23 20 16 14 20 16 15 37 39 24 31 24 28 30 25 22 20 20 17 19 28 23 25 29 25 25 15 17 17 14 13 9 15 22 27 26 21 24 29 32 29 28 28
25 22 19 15 13 14 17 18 16 34 46 22 34 29 14 14 23 23 24 23 24 17 26 25 21 20 18 19 18 17 9 12 13 9 18 22 29 32 31 31 32 33 35 32 31
23 19 18 15 18 20 22 21 13 19 38 16 23 30 12 20 23 25 25 27 31 28 19 22 25 25 14 13 13 14 17 20 19 18 22 31 40 38 37 33 30 28 31 31 31
19 17 14 13 17 21 10 9 15 27 5 24 28 21 22 18 20 27 26 25 23 26 27 24 8 15 13 11 12 17 20 20 18 22 24 31 41 31 19 18 17 15 15 14 18
11 11 10 14 17 20 6 6 19 12 10 23 28 22 22 19 22 23 23 21 23 23 21 15 19 9 17 21 21 18 14 15 15 14 9 10 12 30 22 24 27 21 18 19 19
12 12 15 16 20 16 2 3 29 18 3 20 34 22 25 23 26 28 25 23 25 27 22 10 16 13 10 11 19 14 14 14 16 18 22 20 12 24 20 21 15 12 17 11 14
15 21 19 15 17 5 2 0 16 4 2 17 24 31 33 16 23 32 25 21 21 15 17 10 8 12 16 12 16 13 15 12 10 8 5 16 15 10 3 2 4 6 12 18 20
24 19 11 9 3 6 7 17 15 3 1 24 33 34 30 26 21 36 29 26 18 16 17 15 10 11 9 11 16 16 7 1 2 2 7 6 11 25 6 7 17 22 21 24 18
17 12 12 9 13 12 21 21 6 9 3 28 36 35 29 22 25 29 27 26 19 14 19 16 5 18 14 18 9 17 11 4 5 3 5 1 11 9 5 15 21 19 25 25 22
13 16 15 12 13 15 11 3 5 5 29 31 36 33 27 19 18 23 24 23 22 18 7 9 5 3 4 9 14 12 13 6 4 8 3 11 14 23 20 14 17 18 21 20 19
14 14 15 9 11 16 8 2 8 15 23 33 21 20 22 21 17 18 21 18 23 21 10 9 6 4 9 8 18 8 7 8 5 3 5 8 11 18 20 20 21 14 14 18 20
11 13 12 12 11 9 6 7 14 19 17 11 11 13 23 25 13 16 16 2 17 18 16 10 6 8 12 14 19 21 13 8 5 6 3 4 6 9 10 20 24 26 23 13 12
13 18 14 13 8 10 16 16 20 19 17 13 10 16 23 24 14 14 11 2 10 10 26 12 6 10 18 4 3 15 19 17 6 3 11 9 17 13 11 19 25 27 37 40 43
22 22 17 12 15 30 24 24 21 13 12 11 9 13 15 24 11 13 13 9 17 14 22 18 8 3 3 6 12 15 17 17 19 22 26 8 17 18 32 49 48 49 47 46 46
21 16 13 12 16 14 22 21 20 21 19 19 19 24 28 12 7 14 16 12 18 16 13 12 8 6 5 4 8 12 16 19 19 16 26 40 51 52 48 46 44 39 42 37 33
12 10 8 9 14 13 18 18 19 18 21 22 15 13 15 11 12 13 11 15 22 21 14 14 8 12 13 15 17 20 22 21 27 33 29 45 42 38 31 39 37 34 33 24 20
2 17 14 14 13 12 9 13 11 12 16 16 18 15 10 12 5 12 9 14 12 23 19 17 8 10 15 1 4 10 13 16 18 22 30 33 36 28 31 29 29 30 27 17 12
9 14 11 12 11 5 7 5 5 7 7 12 11 10 9 9 8 9 9 9 5 8 15 12 6 6 4 6 11 7 2 6 11 14 19 23 24 27 35 28 27 25 22 21 17
Wind_Direction
303 298 295 293 286 271 252 252 248 259 261 252 247 245 246 246 243 239 237 239 239 239 232 230 228 223 225 218 217 213 218 227 229 230 237 220 240 254 239 239 249 221 238 245 241
304 296 287 285 280 275 261 246 252 242 257 255 249 245 243 245 241 241 239 235 235 237 232 229 224 220 219 218 214 207 219 226 230 235 242 242 244 249 250 234 227 226 230 236 237
300 295 287 278 274 269 261 253 245 236 243 250 249 248 241 244 244 234 237 237 233 230 227 220 213 211 214 213 213 215 224 230 234 232 228 246 234 253 223 232 236 226 233 238 246
301 299 292 284 270 265 262 253 237 233 232 247 243 246 242 240 235 235 228 231 226 224 223 213 210 205 206 215 215 221 229 239 241 220 232 243 234 232 230 219 219 228 218 231 234
307 303 298 285 270 261 257 251 233 226 229 235 246 235 238 238 229 225 206 212 208 215 218 214 214 207 210 218 213 222 230 226 223 218 232 241 237 232 229 230 233 226 216 214 217
303 302 302 298 280 255 247 249 230 223 223 225 234 228 231 237 228 223 208 192 199 208 204 207 216 213 222 209 205 222 226 237 223 228 235 238 242 241 236 230 237 236 214 213 213
300 303 302 300 295 287 262 244 233 222 218 216 233 235 230 221 231 220 221 207 203 203 203 202 213 193 186 188 203 222 229 238 235 239 240 239 249 250 257 247 241 241 248 229 224
307 307 308 301 295 297 288 260 248 221 208 208 213 236 229 213 225 222 212 206 209 201 196 192 214 198 203 198 206 222 235 248 255 261 257 251 258 261 261 253 244 240 242 243 231
313 312 311 305 297 289 271 251 265 199 199 200 214 212 221 213 217 212 212 203 199 195 194 196 199 201 200 211 232 241 250 251 268 240 254 243 266 277 267 239 245 248 246 244 242
316 316 314 306 305 291 268 283 268 202 190 188 207 206 220 213 203 199 201 191 180 188 193 196 212 214 220 199 198 226 240 258 261 285 244 256 272 281 255 231 246 251 256 256 249
319 323 317 312 302 303 284 268 272 223 184 204 200 196 198 192 192 190 197 187 177 181 196 206 221 216 218 237 244 239 232 259 233 220 252 252 256 258 266 261 254 257 260 262 262
328 333 325 313 326 324 304 274 240 207 211 178 204 197 181 190 181 185 190 191 195 201 202 191 217 227 225 224 233 237 251 262 248 242 263 258 260 265 272 275 272 264 257 256 256
323 329 322 314 319 332 353 241 211 187 181 174 190 166 187 182 186 187 184 192 194 196 204 215 200 218 182 194 223 237 249 258 272 264 261 275 282 284 271 266 259 263 264 264 263
330 333 329 317 331 340 350 217 183 177 207 169 167 169 172 178 170 182 178 184 176 187 186 204 220 210 209 213 220 246 250 249 259 277 274 290 291 282 275 268 273 283 275 273 269
16 352 326 314 319 322 358 184 172 163 150 167 164 175 170 168 170 171 163 178 182 186 181 175 202 219 223 226 224 231 235 244 258 272 282 278 251 285 292 295 272 254 264 276 289
327 318 313 307 307 286 122 87 165 110 275 158 158 156 160 155 167 164 169 174 168 178 189 180 200 218 233 221 205 224 244 264 273 276 276 270 225 279 332 352 202 282 288 298 292
329 334 318 315 113 128 122 132 149 236 265 148 145 151 159 159 162 167 175 173 171 154 173 200 203 225 221 213 211 220 225 333 333 233 237 333 221 244 199 212 299 297 283 291 285
356 47 68 91 115 110 128 128 154 262 110 140 143 149 152 160 162 169 172 176 174 178 180 187 198 236 242 230 225 207 212 195 226 227 284 334 240 268 302 298 297 293 296 296 282
52 70 76 84 109 145 152 142 216 78 127 139 142 148 152 161 165 175 182 184 177 160 141 167 204 214 198 201 204 195 213 210 260 287 274 235 261 276 291 288 277 280 269 266 268
55 76 84 87 115 123 119 68 281 141 148 150 138 165 171 168 167 176 184 208 202 192 143 138 128 183 195 200 203 217 204 191 196 251 269 285 273 272 281 282 285 283 277 270 275
47 90 90 101 99 128 21 67 89 115 99 121 137 143 175 169 180 181 173 170 200 203 176 180 185 181 199 219 209 205 207 203 226 242 218 293 254 290 266 291 296 292 282 276 289
59 85 85 94 63 17 73 99 109 82 91 110 175 183 176 166 161 163 185 70 189 192 180 184 199 208 226 238 251 235 229 216 213 236 236 284 277 293 289 286 280 286 286 271 269
84 94 93 71 56 94 83 91 87 99 117 129 139 177 174 165 155 173 171 179 164 173 180 202 215 165 134 185 205 220 234 246 260 269 260 263 266 267 291 303 299 298 296 294 290
105 108 102 94 60 106 83 87 89 90 99 93 120 122 138 135 140 167 176 166 173 178 190 202 225 227 192 155 163 209 235 246 250 248 262 256 274 304 310 313 313 304 301 296 288
92 105 93 92 79 87 89 89 91 96 105 114 122 103 117 114 133 158 178 179 184 187 181 200 227 244 257 258 251 263 264 259 252 263 257 291 294 314 325 322 316 314 311 312 276
132 123 114 107 81 114 86 86 88 94 105 125 130 151 165 151 173 167 167 175 176 200 202 216 246 289 304 341 240 266 279 278 273 279 281 289 296 335 335 325 322 315 319 300 289
145 148 134 132 122 104 87 93 107 115 118 126 133 149 147 153 142 179 178 186 196 199 206 214 234 301 274 316 298 273 29 307 296 305 302 297 325 348 351 340 331 325 317 300 272